Weather History for Phoenix, AZ

Change the Weather History Date:

Tuesday, August 5, 2014

  Actual Average Record
Temperature  
Mean Temperature 94 °F 94 °F  
Max Temperature 105 °F 105 °F 114 °F (1969)
Min Temperature 83 °F 84 °F 69 °F (1953)
Degree Days  
Heating Degree Days 0 0  
Month to date heating degree days 0 0  
Since 1 June heating degree days 0 0  
Since 1 July heating degree days 0 0  
Cooling Degree Days 29 29  
Month to date cooling degree days 133 145  
Year to date cooling degree days 3047 2729  
Since 1 June cooling degree days 1972 1843  
Growing Degree Days 44 (Base 50)    
Moisture  
Dew Point 52 °F    
Average Humidity 26    
Maximum Humidity 40    
Minimum Humidity 11    
Precipitation  
Precipitation 0.00 in 0.04 in 1.16 in (1931)
Month to date precipitation T 0.18  
Year to date precipitation 1.05 4.46  
Snow  
Snow 0.00 in - - ()
Month to date snowfall 0.0  
Year to date snowfall 0.0  
Since 1 July snowfall 0.0  
Snow Depth 0.00 in    
Sea Level Pressure  
Sea Level Pressure 29.84 in    
Wind  
Wind Speed 6 mph (West)    
Max Wind Speed 16 mph    
Max Gust Speed 22 mph    
Visibility 10 miles    
Events      
T = Trace of Precipitation, MM = Missing Value Source: NWS Daily Summary

Daily Weather History Graph

Daily Weather History Graph

Search for Another Location

Airport:

Trip Planner

Search our weather history database for the weather conditions in past years. The results will help you decide how hot, cold, wet, or windy it might be!

Date:

Astronomy

Aug. 05, 2014 Rise Set
Actual Time 5:43 AM MST 7:24 PM MST
Civil Twilight 5:16 AM MST 7:50 PM MST
Nautical Twilight 4:44 AM MST 8:23 PM MST
Astronomical Twilight 4:10 AM MST 8:57 PM MST
Moon 2:41 PM MST (8/5) 12:34 AM MST (8/5)
Length of Visible Light 14h 34m
Length of Day
13h 40m
Waxing Gibbous, 69% of the Moon is Illuminated
Aug 5
Waxing Gibbous
Aug 10
Full
Aug 17
Last Quarter
Aug 25
New
Sep 2
First Quarter

Hourly Weather History & Observations

Time (MST) Temp. Heat Index Dew Point Humidity Pressure Visibility Wind Dir Wind Speed Gust Speed Precip Events Conditions
12:51 AM 89.1 °F 86.7 °F 53.1 °F 29% 29.82 in 10.0 mi WSW 4.6 mph - N/A   Clear
1:51 AM 89.6 °F 87.3 °F 53.6 °F 29% 29.88 in 10.0 mi WNW 4.6 mph - N/A   Clear
2:51 AM 88.0 °F 86.1 °F 55.0 °F 32% 29.82 in 10.0 mi Calm Calm - N/A   Clear
3:51 AM 86.0 °F 84.7 °F 55.9 °F 36% 29.83 in 10.0 mi East 4.6 mph - N/A   Clear
4:51 AM 84.9 °F 83.7 °F 55.9 °F 37% 29.84 in 10.0 mi East 3.5 mph - N/A   Clear
5:51 AM 84.0 °F 83.0 °F 55.9 °F 38% 29.87 in 10.0 mi East 5.8 mph - N/A   Partly Cloudy
6:51 AM 84.0 °F 83.3 °F 57.0 °F 40% 29.88 in 10.0 mi ESE 6.9 mph - N/A   Clear
7:51 AM 86.0 °F 84.9 °F 57.2 °F 37% 29.96 in 10.0 mi East 5.8 mph - N/A   Clear
8:51 AM 90.0 °F 88.8 °F 57.9 °F 34% 29.91 in 10.0 mi SE 3.5 mph - N/A   Clear
9:51 AM 91.9 °F 90.6 °F 57.0 °F 31% 29.91 in 10.0 mi Calm Calm - N/A   Partly Cloudy
10:51 AM 95.0 °F 93.4 °F 55.9 °F 27% 29.91 in 10.0 mi Calm Calm - N/A   Partly Cloudy
11:51 AM 98.1 °F 96.4 °F 55.0 °F 24% 29.89 in 10.0 mi Variable 3.5 mph - N/A   Partly Cloudy
12:51 PM 100.9 °F 99.1 °F 54.0 °F 21% 29.86 in 10.0 mi West 5.8 mph - N/A   Partly Cloudy
1:51 PM 102.0 °F 99.7 °F 53.1 °F 19% 29.84 in 10.0 mi Variable 3.5 mph - N/A   Partly Cloudy
2:51 PM 102.9 °F - 51.1 °F 18% 29.82 in 10.0 mi West 10.4 mph - N/A   Partly Cloudy
3:51 PM 102.9 °F - 51.1 °F 18% 29.80 in 10.0 mi West 10.4 mph 17.3 mph N/A   Partly Cloudy
4:51 PM 104.0 °F - 51.1 °F 17% 29.78 in 10.0 mi West 11.5 mph 17.3 mph N/A   Partly Cloudy
5:51 PM 102.0 °F - 51.1 °F 18% 29.78 in 10.0 mi NW 11.5 mph 17.3 mph N/A   Partly Cloudy
6:51 PM 102.0 °F - 42.1 °F 13% 29.78 in 10.0 mi West 10.4 mph - N/A   Partly Cloudy
7:51 PM 100.9 °F - 36.0 °F 11% 29.79 in 10.0 mi WNW 11.5 mph - N/A   Partly Cloudy
8:51 PM 99.0 °F - 48.9 °F 18% 29.81 in 10.0 mi West 9.2 mph - N/A   Clear
9:51 PM 95.0 °F - 50.0 °F 22% 29.82 in 10.0 mi WSW 4.6 mph - N/A   Clear
10:51 PM 97.0 °F - 42.1 °F 15% 29.82 in 10.0 mi West 10.4 mph - N/A   Clear
11:51 PM 91.0 °F - 44.1 °F 20% 29.82 in 10.0 mi WSW 4.6 mph - N/A   Clear